LU5DTF-1 Weather Reports


time (UTC)temp
F
wind
direction
speed
knots
gust
knots
rain 1hr
in
rain 24hr
in
rain mn
in
humidity
%
barometer
mb
20260508025500 56 255 5.2 7.8 0.01 0.02 0.02 91 995.7
20260508025000 56 253 6.1 8.7 0.00 0.01 0.01 91 995.7
20260508024500 56 255 6.1 8.7 0.00 0.01 0.01 90 995.6
20260508024000 56 256 5.2 8.7 0.00 0.02 0.01 90 995.7
20260508023500 56 257 5.2 8.7 0.00 0.02 0.01 90 995.7
20260508023000 56 260 4.3 7.8 0.00 0.02 0.01 90 995.7
20260508022500 56 259 3.5 7.0 0.00 0.03 0.01 90 995.9
20260508022000 56 264 4.3 7.8 0.00 0.06 0.01 90 995.9
20260508021500 56 265 5.2 7.8 0.00 0.12 0.01 90 995.9
20260508021000 56 264 5.2 7.8 0.00 0.13 0.01 90 995.8
20260508020500 56 262 5.2 7.8 0.00 0.15 0.01 90 995.8
20260508020000 56 262 5.2 8.7 0.00 0.16 0.01 90 995.8
20260508015500 56 261 5.2 8.7 0.00 0.17 0.01 90 995.9
20260508015000 56 259 4.3 7.0 0.00 0.17 0.01 90 996.0
20260508014500 56 261 4.3 7.8 0.00 0.17 0.01 89 996.1
20260508014000 56 259 5.2 7.8 0.00 0.17 0.01 89 996.2
20260508013500 56 257 5.2 8.7 0.00 0.17 0.01 89 996.1
20260508013000 56 258 5.2 9.6 0.00 0.17 0.01 89 996.2
20260508012500 56 257 5.2 9.6 0.00 0.17 0.01 89 996.2
20260508012000 56 258 5.2 9.6 0.00 0.17 0.01 89 996.4
20260508011500 56 260 5.2 7.8 0.00 0.17 0.01 89 996.5
20260508011000 56 262 5.2 7.8 0.00 0.17 0.01 89 996.6
20260508010500 56 262 5.2 7.8 0.00 0.17 0.01 89 996.7
20260508010000 56 260 4.3 7.8 0.00 0.17 0.01 89 996.8
20260508005500 56 259 4.3 7.8 0.00 0.17 0.01 89 996.8
20260508005000 56 260 5.2 7.8 0.00 0.17 0.01 89 996.9
20260508004500 56 264 4.3 7.0 0.00 0.20 0.01 89 997.0
20260508004000 56 266 5.2 9.6 0.00 0.24 0.01 89 997.1
20260508003500 56 266 5.2 11.3 0.00 0.29 0.01 89 997.1
20260508003000 56 262 5.2 11.3 0.00 0.32 0.01 89 997.1
20260508002500 56 261 5.2 7.8 0.00 0.35 0.01 89 997.1
20260508002000 56 266 5.2 8.7 0.00 0.35 0.01 89 997.1
20260508001500 56 267 5.2 8.7 0.00 0.35 0.01 89 997.3
20260508001000 56 264 5.2 8.7 0.00 0.35 0.01 89 997.1
20260508000500 56 271 4.3 7.8 0.00 0.35 0.01 88 996.9
20260508000000 56 278 3.5 7.0 0.00 0.35 0.01 88 997.0
20260507235500 56 274 2.6 7.0 0.00 0.35 0.01 88 997.1
20260507235000 56 265 2.6 7.0 0.00 0.36 0.01 88 997.0
20260507234500 56 262 4.3 7.8 0.00 0.39 0.01 88 996.7
20260507234000 56 259 4.3 7.8 0.00 0.48 0.01 88 996.6
20260507233500 56 253 4.3 7.8 0.00 0.54 0.01 88 996.4
20260507233000 56 249 5.2 9.6 0.00 0.56 0.01 87 996.3
20260507232500 57 250 5.2 9.6 0.00 0.57 0.01 87 996.3
20260507232000 57 252 5.2 8.7 0.00 0.57 0.01 87 996.3
20260507231500 57 251 5.2 7.0 0.00 0.58 0.01 87 996.5
20260507231000 57 244 4.3 7.0 0.00 0.63 0.01 86 996.6
20260507230500 57 239 4.3 10.4 0.00 0.66 0.01 86 996.6
20260507230000 57 239 5.2 10.4 0.00 0.69 0.01 86 996.6
20260507225500 57 242 5.2 7.0 0.00 0.74 0.01 86 996.5
20260507225000 57 246 4.3 7.8 0.00 0.79 0.01 85 996.5
20260507224500 57 247 4.3 8.7 0.00 0.83 0.01 85 996.6
20260507224000 57 248 5.2 9.6 0.00 0.89 0.01 85 996.7
20260507223500 57 244 5.2 9.6 0.00 0.95 0.01 85 996.7
20260507223000 57 242 7.0 13.0 0.00 1.13 0.01 85 996.5
20260507222500 57 243 7.8 13.9 0.00 1.24 0.01 85 996.6
20260507222000 57 242 7.8 13.9 0.00 1.34 0.01 85 996.4
20260507221500 57 241 7.8 13.0 0.00 1.37 0.01 85 996.3
20260507221000 57 238 7.8 13.0 0.00 1.41 0.01 85 996.0
20260507220500 57 239 7.8 13.9 0.00 1.42 0.01 85 996.2
20260507220000 57 237 7.8 13.9 0.00 1.43 0.01 85 996.2
20260507215500 57 233 7.8 14.8 0.00 1.46 0.01 85 996.0
20260507215000 58 234 8.7 14.8 0.00 1.49 0.01 85 995.9
20260507214500 58 236 8.7 16.5 0.00 1.51 0.01 85 995.9
20260507214000 57 236 9.6 16.5 0.00 1.53 0.01 85 995.9
20260507213500 57 230 9.6 15.6 0.00 1.53 0.01 85 995.9
20260507213000 58 226 9.6 16.5 0.00 1.54 0.01 85 995.7
20260507212500 58 226 8.7 16.5 0.00 1.60 0.01 85 995.5
20260507212000 57 226 7.8 15.6 0.00 1.61 0.01 85 995.3
20260507211500 58 229 7.8 15.6 0.00 1.62 0.01 86 995.2
20260507211000 58 231 8.7 15.6 0.00 1.64 0.01 86 995.5
20260507210500 58 231 7.8 15.6 0.00 1.65 0.01 86 995.7
20260507210000 58 231 7.0 12.2 0.00 1.68 0.01 87 995.9
20260507205500 58 236 9.6 14.8 0.00 1.73 0.01 87 996.3
20260507205000 58 237 9.6 15.6 0.00 1.77 0.01 87 996.2
20260507204500 58 238 8.7 15.6 0.00 1.89 0.01 87 996.2
20260507204000 58 240 9.6 13.9 0.00 1.89 0.01 87 996.4
20260507203500 58 239 10.4 17.4 0.00 1.90 0.01 87 996.8
20260507203000 58 240 10.4 17.4 0.00 1.90 0.01 87 996.9
20260507202500 58 244 11.3 18.2 0.00 1.91 0.01 87 997.0
20260507202000 58 245 11.3 18.2 0.00 1.93 0.01 87 997.2
20260507201500 58 243 10.4 16.5 0.00 1.93 0.01 88 997.3
20260507201000 58 238 10.4 18.2 0.00 1.93 0.01 88 997.3
20260507200500 58 239 9.6 18.2 0.00 1.93 0.01 88 997.2
20260507200000 58 241 8.7 16.5 0.00 1.93 0.01 89 997.4
20260507195500 58 239 9.6 15.6 0.00 1.93 0.01 90 997.5
20260507195000 58 235 10.4 17.4 0.00 1.93 0.01 90 997.5
20260507194500 58 234 9.6 17.4 0.00 1.93 0.01 90 997.5
20260507194000 58 236 8.7 13.9 0.00 1.93 0.01 90 997.3
20260507193500 58 237 8.7 14.8 0.00 1.94 0.01 91 997.4
20260507193000 58 238 8.7 14.8 0.00 1.94 0.01 91 997.6
20260507192500 58 239 8.7 15.6 0.00 1.96 0.01 92 997.4
20260507192000 58 239 9.6 15.6 0.00 2.07 0.01 92 997.3
20260507191500 58 242 8.7 14.8 0.00 2.14 0.01 93 997.4
20260507191000 58 246 8.7 13.9 0.00 2.17 0.01 93 997.6
20260507190500 58 246 9.6 13.9 0.00 2.19 0.01 93 997.5
20260507190000 58 242 9.6 16.5 0.00 2.25 0.01 93 997.4
20260507185500 58 238 9.6 16.5 0.00 2.26 0.01 93 997.4
20260507185000 58 239 10.4 14.8 0.00 2.26 0.01 93 997.3
20260507184500 58 241 10.4 15.6 0.00 2.26 0.01 93 997.2
20260507184000 58 237 9.6 15.6 0.00 2.26 0.01 93 997.3
20260507183500 58 235 7.8 13.9 0.00 2.26 0.01 93 997.2
20260507183000 58 241 8.7 16.5 0.00 2.26 0.01 93 997.2
20260507182500 58 242 10.4 18.2 0.00 2.26 0.01 93 997.2
20260507181959 58 241 11.3 18.2 0.00 2.26 0.01 93 997.3
20260507181500 58 240 10.4 17.4 0.00 2.26 0.01 93 997.1
20260507180959 58 241 8.7 17.4 0.00 2.26 0.01 93 997.2
20260507180459 59 247 7.8 14.8 0.00 2.26 0.01 94 997.2
20260507180000 58 244 7.8 14.8 0.00 2.26 0.01 94 997.4
20260507175459 58 237 7.8 13.9 0.00 2.26 0.01 94 997.4
20260507175000 58 234 7.8 13.9 0.00 2.26 0.01 94 997.4
20260507174500 58 228 6.1 13.0 0.00 2.26 0.01 94 997.4
20260507173959 58 228 7.0 13.9 0.00 2.26 0.01 94 997.1
20260507173500 58 231 7.8 13.9 0.00 2.26 0.01 94 997.0
20260507173000 58 229 7.8 11.3 0.00 2.26 0.01 94 996.9
20260507172500 58 235 7.8 13.9 0.00 2.26 0.01 94 997.0
20260507172000 58 239 7.0 13.9 0.00 2.27 0.01 94 996.9
20260507171500 58 237 7.0 13.0 0.00 2.27 0.01 94 996.8
20260507171000 58 239 7.8 13.0 0.00 2.27 0.01 94 996.8
20260507170500 58 244 7.8 12.2 0.00 2.28 0.01 94 996.9
20260507170000 58 242 7.8 12.2 0.00 2.31 0.01 94 997.0
20260507165459 57 241 7.8 13.9 0.00 2.32 0.01 94 997.1
20260507164959 57 240 7.8 13.9 0.00 2.32 0.01 94 997.1
20260507164500 58 241 7.8 12.2 0.00 2.32 0.01 94 997.1
20260507164000 58 242 7.0 12.2 0.00 2.32 0.01 94 997.2
20260507163459 58 235 6.1 10.4 0.00 2.32 0.01 94 997.5
20260507163000 58 234 5.2 10.4 0.00 2.32 0.01 94 997.4
20260507162459 58 234 4.3 7.8 0.00 2.32 0.01 93 997.4
20260507161959 58 236 4.3 9.6 0.00 2.32 0.01 93 997.5
20260507161500 58 242 6.1 9.6 0.00 2.32 0.01 93 997.6
20260507160959 58 240 6.1 9.6 0.00 2.32 0.01 93 997.6
20260507160500 58 234 6.1 9.6 0.00 2.32 0.01 92 997.6
20260507160001 58 229 5.2 7.8 0.00 2.32 0.01 91 997.6
20260507155500 58 225 5.2 11.3 0.00 2.32 0.01 91 997.2
20260507154959 58 225 6.1 11.3 0.00 2.32 0.01 92 996.9
20260507154500 58 222 7.0 11.3 0.00 2.32 0.01 91 996.9
20260507153959 58 218 7.0 11.3 0.00 2.32 0.01 92 996.9
20260507153459 58 224 7.8 13.9 0.00 2.32 0.01 91 996.7
20260507152959 58 226 8.7 13.9 0.00 2.32 0.01 92 996.5
20260507152500 58 225 8.7 13.0 0.00 2.32 0.01 92 996.5
20260507151959 58 225 8.7 14.8 0.01 2.32 0.01 92 996.4
20260507151459 58 223 8.7 14.8 0.01 2.32 0.01 92 996.2
20260507151000 57 225 9.6 12.2 0.01 2.32 0.01 92 996.2
20260507145500 57 203 7.8 15.6 0.01 2.32 0.01 92 996.2
20260507145000 58 210 7.8 13.0 0.01 2.32 0.01 93 996.3
20260507144500 57 217 7.8 13.0 0.01 2.32 0.01 92 996.7
20260507144000 57 218 7.0 12.2 0.01 2.32 0.01 92 996.4
20260507143500 57 216 7.0 11.3 0.01 2.32 0.01 92 996.4
20260507143002 57 209 7.0 12.2 0.01 2.32 0.01 92 996.5
20260507142500 58 208 7.0 12.2 0.01 2.32 0.01 92 997.2
20260507142000 58 208 6.1 11.3 0.00 2.31 0.00 92 997.9
20260507141501 58 198 6.1 11.3 0.00 2.31 0.00 92 997.9
20260507141000 58 188 7.0 13.0 0.00 2.31 0.00 91 997.5
20260507140500 58 187 7.8 13.0 0.00 2.31 0.00 91 997.0
20260507140000 58 200 7.0 11.3 0.00 2.31 0.00 90 997.5
20260507135500 58 214 7.8 13.0 0.00 2.31 0.00 90 997.6
20260507135000 58 218 7.0 13.0 0.00 2.31 0.00 90 997.6
20260507134500 58 214 5.2 9.6 0.00 2.31 0.00 90 997.8
20260507134000 58 219 5.2 7.8 0.00 2.31 0.00 90 997.9
20260507133500 58 222 5.2 9.6 0.00 2.31 0.00 90 997.9
20260507133000 58 221 6.1 9.6 0.00 2.31 0.00 89 998.0
20260507132500 58 214 6.1 9.6 0.00 2.31 0.00 89 997.9
20260507132000 58 216 5.2 9.6 0.00 2.31 0.00 89 997.9
20260507131500 58 226 6.1 11.3 0.00 2.31 0.00 89 997.9
20260507131000 58 227 7.0 12.2 0.00 2.31 0.00 89 997.8
20260507130500 58 225 7.0 12.2 0.00 2.31 0.00 90 997.7
20260507130000 58 216 7.0 11.3 0.00 2.31 0.00 90 997.1
20260507125500 58 219 7.8 13.9 0.00 2.31 0.00 90 997.0
20260507125000 58 224 7.8 13.9 0.00 2.31 0.00 90 996.7
20260507124500 58 226 8.7 16.5 0.00 2.31 0.00 90 996.5
20260507124000 58 228 9.6 16.5 0.00 2.31 0.00 91 996.3
20260507123500 58 224 8.7 14.8 0.00 2.31 0.00 91 995.9
20260507123000 58 227 9.6 15.6 0.00 2.31 0.00 92 996.0
20260507122500 58 229 9.6 15.6 0.00 2.31 0.00 92 996.2
20260507122000 58 224 9.6 17.4 0.00 2.31 0.00 92 996.4
20260507121500 58 221 8.7 17.4 0.00 2.31 0.00 93 996.5
20260507121000 58 212 7.8 13.0 0.00 2.31 0.00 93 996.9
20260507120500 58 202 7.0 13.0 0.00 2.31 0.00 93 996.8
20260507120000 58 207 7.0 13.0 0.00 2.31 0.00 93 996.7
20260507115500 58 211 7.8 13.0 0.00 2.31 0.00 93 996.9
20260507115000 59 202 7.0 12.2 0.00 2.31 0.00 94 997.0
20260507114500 59 193 6.1 12.2 0.00 2.31 0.00 94 997.0
20260507114000 59 195 6.1 12.2 0.00 2.31 0.00 94 997.0
20260507113500 59 197 7.8 13.9 0.00 2.31 0.00 94 996.8
20260507113000 59 196 7.8 15.6 0.00 2.31 0.00 94 996.3
20260507112500 58 193 7.8 15.6 0.00 2.31 0.00 94 996.3
20260507112000 59 195 7.8 13.9 0.00 2.31 0.00 94 996.3
20260507111500 59 197 7.8 14.8 0.00 2.31 0.00 94 996.4
20260507111000 59 198 7.8 14.8 0.00 2.31 0.00 94 996.3
20260507110500 60 221 7.0 11.3 0.00 2.31 0.00 94 996.5
20260507110000 60 236 7.0 13.0 0.00 2.31 0.00 94 996.7
20260507105500 60 235 7.8 13.0 0.00 2.31 0.00 94 996.4
20260507105000 60 233 8.7 13.9 0.00 2.31 0.00 94 996.1
20260507104500 60 236 9.6 16.5 0.00 2.31 0.00 94 995.9
20260507104000 59 238 9.6 16.5 0.00 2.31 0.00 94 996.2
20260507103500 59 243 8.7 13.0 0.00 2.31 0.00 94 996.6
20260507103000 59 247 8.7 13.0 0.00 2.31 0.00 94 996.7
20260507102500 59 247 7.8 13.0 0.00 2.31 0.00 94 996.8
20260507102000 59 247 7.8 12.2 0.00 2.31 0.00 94 996.8
20260507101500 59 250 8.7 13.9 0.00 2.31 0.00 94 996.7
20260507101000 59 252 7.8 13.9 0.00 2.31 0.00 93 996.7
20260507100500 59 252 7.8 12.2 0.00 2.31 0.00 93 996.9
20260507100000 59 251 8.7 13.9 0.00 2.31 0.00 93 996.9
20260507095500 59 246 7.8 13.9 0.00 2.31 0.00 93 996.9
20260507095000 60 244 7.0 13.9 0.00 2.31 0.00 93 996.9
20260507094500 60 249 7.8 13.9 0.00 2.31 0.00 93 997.1
20260507094000 60 250 7.8 12.2 0.00 2.31 0.00 93 997.3
20260507093500 60 246 7.0 11.3 0.00 2.31 0.00 93 997.3
20260507093000 60 244 7.8 12.2 0.00 2.31 0.00 93 997.3
20260507092500 60 241 7.0 12.2 0.00 2.31 0.00 93 997.4
20260507092000 61 234 5.2 10.4 0.00 2.31 0.00 93 997.3
20260507091500 61 237 3.5 6.1 0.00 2.31 0.00 93 997.3
20260507091000 61 245 2.6 5.2 0.00 2.31 0.00 93 997.6
20260507090500 61 243 2.6 4.3 0.00 2.31 0.00 93 998.0
20260507090000 61 238 2.6 4.3 0.00 2.31 0.00 93 998.2
20260507085500 61 240 2.6 4.3 0.00 2.31 0.00 93 998.3
20260507085000 61 241 2.6 3.5 0.00 2.31 0.00 93 998.2
20260507084500 61 247 1.7 3.5 0.00 2.31 0.00 93 998.1
20260507084000 61 253 1.7 2.6 0.00 2.31 0.00 93 998.1
20260507083500 61 238 0.9 2.6 0.00 2.31 0.00 93 997.6
20260507083000 61 214 0.0 2.6 0.00 2.31 0.00 92 997.4
20260507082500 61 81 0.0 0.9 0.00 2.31 0.00 92 997.4
20260507082000 61 87 0.9 1.7 0.00 2.31 0.00 93 997.2
20260507081500 61 85 1.7 2.6 0.00 2.31 0.00 93 996.7
20260507081000 61 80 1.7 2.6 0.00 2.31 0.00 92 996.5
20260507080500 61 73 0.9 2.6 0.00 2.31 0.00 92 996.4
20260507080000 61 83 0.0 1.7 0.00 2.31 0.00 92 996.5
20260507075500 61 62 1.7 4.3 0.00 2.31 0.00 92 996.4
20260507074959 61 49 3.5 6.1 0.00 2.31 0.00 92 996.7
20260507074500 61 49 4.3 6.1 0.00 2.31 0.00 92 997.1
20260507073959 61 57 4.3 6.1 0.00 2.31 0.00 92 997.2
20260507073500 61 60 2.6 5.2 0.00 2.31 0.00 92 997.1
20260507073000 61 51 1.7 2.6 0.00 2.31 0.00 92 997.0
20260507072500 61 36 0.9 1.7 0.00 2.31 0.00 92 996.9
20260507072000 61 37 0.9 2.6 0.00 2.31 0.00 92 996.7
20260507071500 61 63 2.6 5.2 0.00 2.31 0.00 92 997.0
20260507071000 61 74 4.3 7.0 0.00 2.31 0.00 92 997.0
20260507070459 61 79 6.1 8.7 0.00 2.31 0.00 92 997.1
20260507070000 61 80 7.8 10.4 0.00 2.31 0.00 92 997.2
20260507065500 61 79 7.8 10.4 0.00 2.31 0.00 92 997.2
20260507065000 61 81 7.0 9.6 0.00 2.31 0.00 92 997.3
20260507064500 61 85 7.0 12.2 0.00 2.31 0.00 91 997.4
20260507064000 61 81 8.7 12.2 0.00 2.31 0.00 91 997.4
20260507063500 61 75 7.0 12.2 0.00 2.31 0.00 91 997.9
20260507063000 61 77 7.0 10.4 0.00 2.31 0.00 91 998.0
20260507062500 61 82 9.6 13.0 0.00 2.31 0.00 91 998.0
20260507062000 61 86 10.4 13.9 0.00 2.31 0.00 91 997.8
20260507061459 61 94 7.0 13.9 0.00 2.31 0.00 92 997.4
20260507060959 62 96 7.0 14.8 0.00 2.31 0.00 92 997.1
20260507060459 62 92 10.4 14.8 0.00 2.31 0.00 92 997.2
20260507060000 61 93 9.6 14.8 0.00 2.31 0.00 93 996.9
20260507055459 61 90 7.8 14.8 0.00 2.31 0.00 93 996.7
20260507054959 61 82 7.8 13.0 0.00 2.31 0.00 93 997.1
20260507054500 61 73 8.7 13.0 0.00 2.31 0.00 94 997.4
20260507053959 61 69 7.0 9.6 0.00 2.31 0.00 94 997.4
20260507053500 61 84 6.1 7.8 0.00 2.31 0.00 94 997.7
20260507053000 62 90 7.8 10.4 0.00 2.31 0.00 94 997.5
20260507052500 61 89 7.8 13.0 0.00 2.31 0.00 94 997.4
20260507051959 61 95 6.1 13.0 0.00 2.31 0.00 94 997.2
20260507051500 61 98 6.1 11.3 0.00 2.31 0.00 94 997.0
20260507051000 61 92 5.2 11.3 0.00 2.31 0.00 94 996.9
20260507050500 61 77 2.6 10.4 0.00 2.31 0.00 94 997.0
20260507050000 61 63 0.9 2.6 0.00 2.31 0.00 95 996.8
20260507045500 61 45 1.7 5.2 0.00 2.31 0.00 95 996.4
20260507044959 62 38 3.5 7.0 0.00 2.31 0.00 95 996.5
20260507044500 61 20 2.6 7.0 0.00 2.31 0.00 95 997.1
20260507043959 61 39 3.5 8.7 0.00 2.31 0.00 95 996.6
20260507043500 61 77 7.0 11.3 0.00 2.31 0.00 94 996.8
20260507043000 61 84 11.3 15.6 0.00 2.31 0.00 94 996.0
20260507042459 61 84 13.0 15.6 0.00 2.31 0.00 94 996.7
20260507041959 61 85 11.3 15.6 0.00 2.31 0.00 95 996.6
20260507041459 61 83 11.3 15.6 0.00 2.31 0.00 95 996.5
20260507041000 61 83 12.2 18.2 0.00 2.31 0.00 95 996.5
20260507040459 61 89 11.3 18.2 0.00 2.31 0.00 95 996.2
20260507040000 61 88 13.0 19.1 0.00 2.31 0.00 95 995.7
20260507035500 61 86 15.6 20.9 0.00 2.31 0.00 95 996.0
20260507034959 61 87 16.5 22.6 0.00 2.31 0.00 95 995.8
20260507034459 61 87 18.2 24.3 0.00 2.31 0.00 95 995.8
20260507034000 61 87 20.0 24.3 0.01 2.31 0.00 95 995.9
20260507033459 60 87 20.0 23.5 0.01 2.31 0.00 95 996.5
20260507032959 60 87 18.2 22.6 0.02 2.31 0.00 95 996.5
20260507032459 60 91 17.4 23.5 0.02 2.31 0.00 95 996.6
20260507031959 60 96 16.5 23.5 0.05 2.31 0.00 95 996.3
20260507031459 60 106 14.8 26.9 0.11 2.31 0.00 95 996.4
20260507031000 60 118 14.8 26.9 0.13 2.31 0.00 95 995.4